Tracking 20721 objects as of 1-Jun-2020
HD Live streaming from Space Station
objects crossing your sky now

MINOTAUR-C DEB

Track MINOTAUR-C DEB now!
10-day predictions


NORAD ID: 42993
Int'l Code: 2017-068G
Perigee: 501.9 km
Apogee: 527.6 km
Inclination: 97.4 °
Period: 94.8 minutes
Semi major axis: 6885 km
RCS: Unknown
Launch date: October 31, 2017
Source: United States (US)
Launch site: AIR FORCE WESTERN TEST RANGE (AFWTR)

Note: This is SATELLITE DEBRIS
aabbcc
Your satellite tracking list
Your tracking list is empty




NASA's NSSDC Master Catalog

Two Line Element Set (TLE):
1 42993U 17068G   20151.85690347 +.00000542 +00000-0 +28712-4 0  9995
2 42993 097.4084 259.0794 0018671 169.9054 190.2559 15.19406690142968
Source of the keplerian elements: AFSPC